Starlink 1465

operational
NORAD ID: 45731 Int'l Des: 2020-038 Owner: SPXS Country: US Constellation: starlink
LEOCIRCULARSTARLINK_TYPE

关于 Starlink 1465

正在加载描述...

实时位置

正在加载3D地球...

即将过境

高度历史

Altitude vs Time

uPlot chart will show altitude changes over time

两行轨道根数

1 45731U 20038B 25257.43135926 .00006201 00000-0 43464-3 0 9990
2 45731 53.0544 307.8740 0001362 80.9502 279.1641 15.06417896289622
Epoch: Sep 14, 2025 • Age: 23 hours

当前状态

高度 547.9 km
速度 7.59 km/s
星下点 1.34°N, 13.53°W
发射日期 Jun 13, 2020
运行时间 5.2 years
类型 internet

技术详情

分类 Payload
质量 260.00 kg
干质量 248.00 kg
总质量 260.00 kg
长度 0.20 m
直径 2.80 m
跨度 9.00 m
形状 Box + pan
制造商 SPXS
平台类型 Starlink
阶段状态 In Orbit
所有者/国家 SPXS/US

大型星座

Loading constellations...